| time (UTC) | temp F | wind direction | speed MPH | gust MPH | rain 1hr in | rain 24hr in | rain mn in | humidity % | barometer mb |
| 20260504223100 | 46 | 50 | 9.0 | 14.0 | 0.00 | 0.24 | 0.00 | 66 | 1004.6 |
| 20260504221545 | 46 | 43 | 6.0 | 12.0 | 0.00 | 0.24 | 0.00 | 63 | 1004.7 |
| 20260504220041 | 46 | 34 | 8.0 | 14.0 | 0.00 | 0.24 | 0.24 | 61 | 1004.7 |
| 20260504214539 | 47 | 53 | 5.0 | 9.0 | 0.00 | 0.24 | 0.24 | 58 | 1004.7 |
| 20260504213038 | 47 | 50 | 5.0 | 13.0 | 0.00 | 0.24 | 0.24 | 56 | 1004.8 |
| 20260504211556 | 47 | 41 | 5.0 | 9.0 | 0.00 | 0.24 | 0.24 | 55 | 1004.7 |
| 20260504210042 | 48 | 40 | 4.0 | 7.0 | 0.00 | 0.24 | 0.24 | 54 | 1004.7 |
| 20260504204535 | 47 | 39 | 4.0 | 8.0 | 0.00 | 0.24 | 0.24 | 55 | 1004.6 |
| 20260504203034 | 49 | 45 | 5.0 | 8.0 | 0.00 | 0.24 | 0.24 | 51 | 1004.7 |
| 20260504201532 | 49 | 37 | 4.0 | 8.0 | 0.00 | 0.24 | 0.24 | 50 | 1004.6 |
| 20260504200032 | 49 | 43 | 5.0 | 8.0 | 0.00 | 0.24 | 0.24 | 50 | 1004.6 |
| 20260504194531 | 50 | 48 | 3.0 | 5.0 | 0.00 | 0.24 | 0.24 | 50 | 1004.7 |
| 20260504193031 | 50 | 52 | 2.0 | 4.0 | 0.00 | 0.24 | 0.24 | 49 | 1004.5 |
| 20260504191534 | 51 | 40 | 3.0 | 6.0 | 0.00 | 0.24 | 0.24 | 48 | 1004.5 |
| 20260504190029 | 51 | 60 | 3.0 | 6.0 | 0.00 | 0.24 | 0.24 | 49 | 1004.5 |
| 20260504184542 | 52 | 57 | 2.0 | 5.0 | 0.00 | 0.24 | 0.24 | 48 | 1004.4 |
| 20260504183030 | 54 | 62 | 2.0 | 6.0 | 0.00 | 0.24 | 0.24 | 45 | 1004.3 |
| 20260504181531 | 54 | 71 | 4.0 | 10.0 | 0.00 | 0.24 | 0.24 | 44 | 1004.3 |
| 20260504180027 | 55 | 76 | 4.0 | 11.0 | 0.00 | 0.24 | 0.24 | 43 | 1004.2 |
| 20260504174526 | 56 | 92 | 7.0 | 16.0 | 0.00 | 0.24 | 0.24 | 42 | 1004.0 |
| 20260504173021 | 56 | 95 | 6.0 | 15.0 | 0.00 | 0.24 | 0.24 | 43 | 1003.9 |
| 20260504171517 | 56 | 86 | 9.0 | 17.0 | 0.00 | 0.24 | 0.24 | 42 | 1004.0 |
| 20260504081515 | 54 | 59 | 6.0 | 9.0 | 0.00 | 0.24 | 0.24 | 79 | 1003.0 |
| 20260504044548 | 47 | 74 | 0.0 | 3.0 | 0.06 | 0.24 | 0.24 | 59 | 1003.4 |
| 20260504043048 | 47 | 52 | 1.0 | 2.0 | 0.06 | 0.23 | 0.23 | 61 | 1003.6 |
| 20260504041543 | 47 | 3 | 0.0 | 1.0 | 0.08 | 0.21 | 0.21 | 64 | 1003.6 |
| 20260504040042 | 47 | 3 | 0.0 | 0.0 | 0.09 | 0.20 | 0.20 | 65 | 1003.7 |
| 20260504034539 | 46 | 3 | 0.0 | 0.0 | 0.09 | 0.18 | 0.18 | 68 | 1003.6 |
| 20260504033038 | 46 | 3 | 0.0 | 0.0 | 0.10 | 0.17 | 0.17 | 70 | 1003.8 |
| 20260504031550 | 46 | 3 | 0.0 | 0.0 | 0.10 | 0.13 | 0.13 | 71 | 1003.8 |
| 20260504030038 | 46 | 3 | 0.0 | 0.0 | 0.09 | 0.11 | 0.11 | 73 | 1003.9 |
| 20260504024533 | 46 | 3 | 0.0 | 1.0 | 0.08 | 0.09 | 0.09 | 74 | 1004.0 |
| 20260504023034 | 46 | 3 | 0.0 | 2.0 | 0.06 | 0.06 | 0.06 | 76 | 1004.0 |
| 20260504021530 | 46 | 3 | 0.0 | 2.0 | 0.03 | 0.03 | 0.03 | 77 | 1004.2 |
| 20260504020028 | 46 | 297 | 0.0 | 1.0 | 0.02 | 0.02 | 0.02 | 79 | 1004.3 |
| 20260504014528 | 46 | 297 | 0.0 | 1.0 | 0.01 | 0.01 | 0.01 | 80 | 1004.4 |
| 20260504013025 | 46 | 297 | 0.0 | 1.0 | 0.00 | 0.00 | 0.00 | 81 | 1004.6 |
| 20260504011522 | 46 | 297 | 0.0 | 2.0 | 0.00 | 0.00 | 0.00 | 81 | 1005.0 |
| 20260504010020 | 46 | 15 | 1.0 | 4.0 | 0.00 | 0.00 | 0.00 | 81 | 1005.2 |
| 20260504004522 | 46 | 315 | 0.0 | 2.0 | 0.00 | 0.00 | 0.00 | 82 | 1005.4 |
| 20260504003018 | 45 | 288 | 0.0 | 1.0 | 0.00 | 0.00 | 0.00 | 81 | 1005.0 |
| 20260504001517 | 45 | 288 | 0.0 | 1.0 | 0.00 | 0.00 | 0.00 | 81 | 1004.9 |
| 20260504000015 | 45 | 288 | 0.0 | 1.0 | 0.00 | 0.00 | 0.00 | 81 | 1005.1 |
| 20260503234512 | 45 | 288 | 0.0 | 3.0 | 0.00 | 0.00 | 0.00 | 81 | 1005.5 |
| 20260503233016 | 45 | 305 | 0.0 | 4.0 | 0.00 | 0.00 | 0.00 | 81 | 1005.7 |
| 20260503231507 | 45 | 301 | 0.0 | 2.0 | 0.00 | 0.00 | 0.00 | 80 | 1005.7 |
| 20260503230006 | 44 | 275 | 0.0 | 3.0 | 0.00 | 0.00 | 0.00 | 81 | 1005.7 |
| 20260503224506 | 44 | 295 | 0.0 | 2.0 | 0.00 | 0.00 | 0.00 | 82 | 1005.8 |